Weather observations for the past three days for
Mount Sterling-Montgomery County Airport
Imperial (Metric)
Date Time (edt) Wind (mph) Vis. (mi.) Weather Sky Cond. Temperature (ºF) Relative Humidity Wind Chill (°F) Heat Index (°F) Pressure Precipitation (in)
Air Dwpt 6 hour altimeter (in) sea level (mb) 1 hr 3 hr 6 hr
Max. Min.
09 05:35 SW 6 10.00 Fair CLR 55.4 42.8 63% 29.83 0.0
09 05:15 SW 6 10.00 Partly Cloudy SCT110 55.4 42.8 63% 29.83 0.0
09 04:55 SW 6 10.00 Mostly Cloudy BKN110 55.4 42.8 63% 29.83 0.0
09 04:35 SW 7 10.00 Mostly Cloudy SCT100 BKN120 55.4 42.8 63% 29.83 0.0
09 04:15 SW 5 10.00 Overcast BKN100 OVC120 55.4 42.8 63% 29.84 0.0
09 03:55 SW 3 10.00 Overcast OVC100 55.4 42.8 63% 29.85 0.0
09 03:35 SW 7 10.00 Mostly Cloudy BKN110 55.4 42.8 63% 29.85 0.0
09 03:15 SW 6 10.00 Mostly Cloudy BKN110 55.4 42.8 63% 29.85 0.0
09 02:55 SW 6 10.00 Mostly Cloudy BKN110 57.2 41 55% 29.85 0.0
09 02:35 SW 7 10.00 Overcast OVC110 55.4 41 59% 29.85 0.0
09 02:15 SW 6 10.00 Mostly Cloudy BKN110 55.4 41 59% 29.86 0.0
09 01:55 SW 6 10.00 Overcast OVC110 55.4 41 59% 29.85 0.0
09 01:35 SW 5 10.00 Mostly Cloudy BKN110 55.4 41 59% 29.85 0.0
09 01:15 SW 5 10.00 Partly Cloudy SCT110 55.4 41 59% 29.85 0.0
09 00:55 SW 5 10.00 Fair CLR 55.4 41 59% 29.86 0.0
09 00:35 SW 5 10.00 Fair CLR 55.4 41 59% 29.86 0.0
09 00:15 SW 5 10.00 Fair CLR 53.6 42.8 67% 29.86 0.0
08 23:55 SW 5 10.00 Fair CLR 53.6 42.8 67% 29.86 0.0
08 23:35 S 3 10.00 Fair CLR 55.4 41 59% 29.87 0.0
08 23:15 SW 5 10.00 Fair CLR 59 41 51% 29.87 0.0
08 22:55 SW 5 10.00 Fair CLR 59 41 51% 29.88 0.0
08 22:35 S 5 10.00 Fair CLR 59 41 51% 29.88 0.0
08 22:15 S 3 10.00 Fair CLR 60.8 41 48% 29.88 0.0
08 21:55 S 3 10.00 Fair CLR 60.8 37.4 42% 29.88 0.0
08 21:35 S 3 10.00 Fair CLR 60.8 37.4 42% 29.88 0.0
08 21:15 SW 3 10.00 Fair CLR 62.6 37.4 39% 29.88 0.0
08 20:55 SW 5 10.00 Fair CLR 64.4 37.4 37% 29.88 0.0
08 20:35 SW 3 10.00 Fair CLR 64.4 37.4 37% 29.88 0.0
08 20:15 SW 3 10.00 Partly Cloudy SCT110 64.4 37.4 37% 29.88 0.0
08 19:55 SW 7 10.00 Mostly Cloudy BKN110 64.4 35.6 34% 29.88 0.0
08 19:35 W 7 10.00 Partly Cloudy SCT120 66.2 37.4 35% 29.88 0.0
08 19:15 SW 10 10.00 Fair CLR 68 37.4 33% 29.89 0.0
08 18:55 SW 6 10.00 Fair CLR 68 37.4 33% 29.89 0.0
08 18:35 SW 9 10.00 Fair CLR 69.8 37.4 31% 29.89 0.0
08 18:15 SW 9 10.00 Fair CLR 69.8 37.4 31% 29.88 0.0
08 17:55 W 12 G 17 10.00 Fair CLR 69.8 37.4 31% 29.88 0.0
08 17:35 SW 7 10.00 Fair CLR 69.8 37.4 31% 29.89 0.0
08 17:15 SW 8 G 17 10.00 Fair CLR 69.8 35.6 29% 29.9 0.0
08 16:55 SW 9 G 18 10.00 Fair CLR 69.8 37.4 31% 29.91 0.0
08 16:35 SW 10 10.00 Fair CLR 69.8 37.4 31% 29.91 0.0
08 16:15 SW 10 10.00 Fair CLR 69.8 37.4 31% 29.91 0.0
08 15:55 SW 8 10.00 Fair CLR 69.8 35.6 29% 29.92 0.0
08 15:35 SW 9 G 17 10.00 Fair CLR 69.8 37.4 31% 29.92 0.0
08 15:15 S 9 G 16 10.00 Fair CLR 69.8 37.4 31% 29.93 0.0
08 14:55 S 13 10.00 Fair CLR 69.8 37.4 31% 29.95 0.0
08 14:35 W 10 G 18 10.00 Fair CLR 69.8 37.4 31% 29.96 0.0
08 14:15 SW 10 10.00 Fair CLR 68 39.2 35% 29.97 0.0
08 13:55 SW 10 10.00 Fair CLR 68 37.4 33% 29.98 0.0
08 13:35 S 10 10.00 Fair CLR 68 37.4 33% 30 0.0
08 13:15 SW 10 10.00 Fair CLR 66.2 39.2 37% 30.01 0.0
08 12:55 W 7 10.00 Fair CLR 66.2 41 40% 30.02 0.0
08 12:35 SW 12 10.00 Fair CLR 64.4 41 43% 30.03 0.0
08 12:15 W 7 10.00 Fair CLR 64.4 39.2 40% 30.03 0.0
08 11:55 W 8 10.00 Fair CLR 62.6 39.2 42% 30.04 0.0
08 11:35 SW 7 10.00 Fair CLR 62.6 41 45% 30.05 0.0
08 11:15 W 7 10.00 Fair CLR 60.8 39.2 45% 30.05 0.0
08 10:55 SW 8 10.00 Fair CLR 59 35.6 42% 30.05 0.0
08 10:35 SW 9 10.00 Fair CLR 59 39.2 48% 30.06 0.0
08 10:15 SW 6 10.00 Fair CLR 59 37.4 45% 30.05 0.0
08 09:55 SW 8 10.00 Fair CLR 55.4 39.2 55% 30.05 0.0
08 09:35 SW 6 10.00 Fair CLR 53.6 37.4 54% 30.05 0.0
08 09:15 SW 8 10.00 Fair CLR 51.8 37.4 58% 30.05 0.0
08 08:55 SW 6 10.00 Fair CLR 51.8 37.4 58% 30.05 0.0
08 08:35 SW 7 10.00 Fair CLR 48.2 37.4 66% 46 30.05 0.0
08 08:15 SW 6 10.00 Fair CLR 46.4 37.4 71% 44 30.05 0.0
08 07:55 SW 5 10.00 Fair CLR 44.6 37.4 76% 43 30.04 0.0
08 07:35 SW 5 10.00 Fair CLR 41 35.6 81% 38 30.03 0.0
08 07:15 SW 6 10.00 Fair CLR 41 35.6 81% 38 30.03 0.0
08 06:55 SW 5 10.00 Fair CLR 39.2 35.6 87% 36 30.03 0.0
08 06:35 SW 6 10.00 Fair CLR 39.2 35.6 87% 36 30.03 0.0
08 06:15 SW 5 10.00 Fair CLR 41 35.6 81% 38 30.02 0.0
08 05:55 SW 6 10.00 Fair CLR 41 33.8 76% 38 30.03 0.0
08 05:35 SW 6 10.00 Fair CLR 41 35.6 81% 38 30.02 0.0
08 05:15 SW 6 10.00 Fair CLR 42.8 35.6 76% 40 30.03 0.0
08 04:55 SW 5 10.00 Fair CLR 42.8 35.6 76% 41 30.03 0.0
08 04:35 SW 7 10.00 Fair CLR 42.8 35.6 76% 39 30.03 0.0
08 04:15 SW 6 10.00 Fair CLR 41 35.6 81% 38 30.02 0.0
08 03:55 SW 3 10.00 Fair CLR 41 35.6 81% 30.02 0.0
08 03:35 SW 6 10.00 Fair CLR 41 35.6 81% 38 30.02 0.0
08 03:15 SW 5 10.00 Fair CLR 37.4 35.6 93% 34 30.02 0.0
08 02:55 SW 5 10.00 Fair CLR 37.4 35.6 93% 34 30.02 0.0
08 02:35 SW 3 10.00 Fair CLR 37.4 35.6 93% 30.02 0.0
08 02:15 SW 3 10.00 Fair CLR 37.4 35.6 93% 30.02 0.0
08 01:55 SW 5 10.00 Fair CLR 37.4 35.6 93% 34 30.03 0.0
08 01:35 SW 3 10.00 Fair CLR 37.4 37.4 100% 30.03 0.0
08 01:15 SW 5 10.00 Fair CLR 39.2 37.4 93% 36 30.03 0.0
08 00:55 W 3 10.00 Fair CLR 39.2 37.4 93% 30.03 0.0
08 00:35 Calm 10.00 Fair CLR 41 37.4 87% 30.03 0.0
08 00:15 W 3 10.00 Fair CLR 41 37.4 87% 30.03 0.0
07 23:55 W 5 10.00 Fair CLR 41 37.4 87% 38 30.03 0.0
07 23:35 Calm 10.00 Fair CLR 41 39.2 93% 30.03 0.0
07 23:15 Calm 10.00 Fair CLR 42.8 39.2 87% 30.03 0.0
07 22:55 Calm 10.00 Fair CLR 42.8 39.2 87% 30.03 0.0
07 22:35 Calm 10.00 Fair CLR 42.8 39.2 87% 30.03 0.0
07 22:15 Calm 10.00 Fair CLR 44.6 37.4 76% 30.02 0.0
07 21:55 Calm 10.00 Fair CLR 46.4 37.4 71% 30.01 0.0
07 21:35 Calm 10.00 Fair CLR 46.4 37.4 71% 30 0.0
07 21:15 Calm 10.00 Fair CLR 50 35.6 58% 30 0.0
07 20:55 Calm 10.00 Fair CLR 51.8 35.6 54% 29.99 0.0
07 20:35 Calm 10.00 Fair CLR 55.4 32 41% 29.98 0.0
07 20:15 N 3 10.00 Fair CLR 55.4 32 41% 29.98 0.0
07 19:55 N 5 10.00 Fair CLR 59 32 36% 29.98 0.0
07 19:35 Calm 10.00 Fair CLR 60.8 32 34% 29.98 0.0
07 19:15 NW 5 10.00 Fair CLR 60.8 32 34% 29.97 0.0
07 18:55 N 3 10.00 Fair CLR 60.8 30.2 31% 29.97 0.0
07 18:35 Calm 10.00 Fair CLR 62.6 32 32% 29.97 0.0
07 18:15 NW 6 10.00 Fair CLR 60.8 30.2 31% 29.98 0.0
07 17:55 N 5 10.00 Fair CLR 60.8 30.2 31% 29.97 0.0
07 17:35 N 8 10.00 Fair CLR 60.8 32 34% 29.97 0.0
07 17:15 N 5 10.00 Fair CLR 60.8 32 34% 29.96 0.0
07 16:15 W 6 10.00 Fair CLR 62.6 33.8 34% 29.97 0.0
07 15:55 N 10 10.00 Partly Cloudy SCT060 62.6 33.8 34% 29.97 0.0
07 15:35 N 5 10.00 Partly Cloudy SCT060 60.8 33.8 36% 29.97 0.0
07 15:15 NW 7 G 16 10.00 Fair CLR 60.8 35.6 39% 29.98 0.0
07 14:55 W 5 10.00 Fair CLR 60.8 33.8 36% 29.98 0.0
07 14:35 N 6 10.00 Partly Cloudy SCT060 60.8 33.8 36% 29.98 0.0
07 14:15 NW 5 10.00 Partly Cloudy SCT060 59 33.8 39% 29.98 0.0
07 13:55 W 9 10.00 Fair CLR 59 35.6 42% 29.98 0.0
07 13:35 N 6 10.00 Partly Cloudy SCT050 59 33.8 39% 29.99 0.0
07 13:15 NW 3 10.00 Partly Cloudy SCT050 57.2 35.6 44% 30 0.0
07 12:55 N 12 10.00 Fair CLR 59 35.6 42% 30 0.0
07 12:35 NW 6 10.00 Partly Cloudy SCT050 59 35.6 42% 30 0.0
07 12:15 N 9 0.00 NULL NULL 57.2 35.6 44% 30.01 0.0
07 11:55 N 8 10.00 Fair CLR 59 35.6 42% 30.01 0.0
07 11:35 N 5 10.00 Fair CLR 57.2 35.6 44% 30.01 0.0
07 11:15 N 5 10.00 Fair CLR 55.4 33.8 44% 30.01 0.0
07 10:55 NW 5 10.00 Fair CLR 55.4 33.8 44% 30 0.0
07 10:35 N 7 10.00 Fair CLR 55.4 33.8 44% 30 0.0
07 10:15 NE 6 10.00 Fair CLR 53.6 35.6 51% 30 0.0
07 09:55 NE 6 10.00 Fair CLR 53.6 35.6 51% 30 0.0
07 09:35 NE 6 10.00 Fair CLR 53.6 37.4 54% 30.01 0.0
07 09:15 NE 8 10.00 Fair CLR 51.8 37.4 58% 30.01 0.0
07 08:55 NE 3 10.00 Fair CLR 51.8 37.4 58% 30.01 0.0
07 08:35 NE 7 10.00 Fair CLR 50 39.2 67% 48 30.02 0.0
07 08:15 NE 5 10.00 Fair CLR 50 41 71% 49 30.02 0.0
07 07:55 N 5 10.00 Fair CLR 46.4 41 82% 45 30.01 0.0
07 07:35 Calm 10.00 Fair CLR 44.6 41 87% 30.01 0.0
07 07:15 N 5 10.00 Fair CLR 44.6 41 87% 43 30 0.0
07 06:55 N 3 10.00 Fair CLR 42.8 41 93% 29.99 0.0
07 06:35 Calm 10.00 Fair CLR 42.8 42.8 100% 29.99 0.0
07 06:15 Calm 10.00 Fair CLR 42.8 42.8 100% 29.99 0.0
07 05:55 Calm 10.00 Partly Cloudy SCT050 44.6 42.8 93% 29.99 0.0
07 05:35 Calm 10.00 Partly Cloudy SCT050 44.6 42.8 93% 29.98 0.0
07 05:15 Calm 10.00 Mostly Cloudy BKN050 44.6 44.6 100% 29.98 0.0
07 04:55 Calm 10.00 Partly Cloudy SCT050 46.4 44.6 93% 29.98 0.0
07 04:35 Calm 10.00 Fair CLR 46.4 44.6 93% 29.98 0.0
07 04:15 Calm 10.00 Fair CLR 48.2 44.6 87% 29.98 0.0
07 03:55 Calm 10.00 Fair CLR 50 42.8 76% 29.97 0.0
07 03:35 Calm 10.00 Fair CLR 50 44.6 82% 29.98 0.0
07 03:15 Calm 10.00 Fair CLR 50 44.6 82% 29.97 0.0
07 02:55 Calm 10.00 Fair CLR 50 44.6 82% 29.98 0.0
07 02:35 N 3 10.00 Fair CLR 50 44.6 82% 29.98 0.0
07 02:15 Calm 10.00 Fair CLR 50 44.6 82% 29.99 0.0
07 01:55 Calm 10.00 Partly Cloudy SCT049 51.8 44.6 77% 29.98 0.0
07 01:35 Calm 10.00 Mostly Cloudy SCT049 BKN055 51.8 42.8 72% 29.98 0.0
07 01:15 Calm 10.00 Overcast SCT046 OVC055 51.8 42.8 72% 29.99 0.0
07 00:55 Calm 10.00 Overcast OVC046 51.8 42.8 72% 29.99 0.0
07 00:35 Calm 10.00 Overcast OVC048 53.6 42.8 67% 29.99 0.0
07 00:15 Calm 10.00 Overcast OVC048 53.6 42.8 67% 30 0.0
06 23:55 Calm 10.00 Overcast OVC048 53.6 42.8 67% 30 0.0
06 23:35 N 3 10.00 Overcast OVC046 53.6 42.8 67% 30 0.0
06 23:15 N 3 10.00 Overcast OVC046 53.6 42.8 67% 29.99 0.0
06 22:55 N 3 10.00 Overcast OVC044 53.6 42.8 67% 29.98 0.0
06 22:35 N 6 10.00 Overcast OVC044 53.6 42.8 67% 29.98 0.0
06 22:15 N 5 10.00 Overcast OVC044 53.6 42.8 67% 29.97 0.0
06 21:55 N 5 10.00 Overcast OVC046 55.4 44.6 67% 29.97 0.0
06 21:35 Calm 10.00 Overcast OVC046 55.4 46.4 72% 29.97 0.0
06 21:15 Calm 10.00 Overcast OVC046 53.6 50 88% 29.97 0.0
06 20:55 Calm 10.00 Overcast OVC044 55.4 46.4 72% 29.96 0.0
06 20:35 Calm 10.00 Overcast OVC044 55.4 46.4 72% 29.96 0.0
06 20:15 Calm 10.00 Overcast OVC042 55.4 46.4 72% 29.95 0.0
06 19:55 N 5 10.00 Overcast OVC042 55.4 46.4 72% 29.93 0.0
06 19:35 Calm 10.00 Overcast BKN042 OVC047 57.2 46.4 67% 29.94 0.0
06 19:15 N 5 10.00 Overcast OVC042 59 46.4 63% 29.93 0.0
06 18:55 Calm 10.00 Overcast OVC044 59 46.4 63% 29.94 0.0
06 18:35 N 3 10.00 Overcast SCT037 OVC044 59 46.4 63% 29.92 0.0
06 18:15 N 3 10.00 Overcast SCT034 OVC044 59 46.4 63% 29.92 0.0
06 17:55 Calm 10.00 Overcast OVC034 59 46.4 63% 29.93 0.0
06 17:35 NW 3 10.00 Overcast BKN029 OVC035 59 48.2 68% 29.93 0.0
06 17:15 NE 3 10.00 Overcast BKN029 OVC043 59 48.2 68% 29.92 0.0
06 16:55 N 6 10.00 Overcast SCT029 OVC043 60.8 46.4 59% 29.92 0.0
06 16:35 NW 3 10.00 Overcast BKN029 OVC043 59 46.4 63% 29.92 0.0
06 16:15 NW 3 10.00 Overcast BKN029 BKN033 OVC044 59 46.4 63% 29.93 0.0
06 15:55 Calm 10.00 Overcast SCT027 BKN031 OVC044 59 48.2 68% 29.95 0.0
06 15:35 NW 3 10.00 Overcast BKN027 OVC031 59 48.2 68% 29.93 0.0
06 15:15 N 5 10.00 Overcast BKN025 OVC044 59 48.2 68% 29.93 0.0
06 14:55 NW 3 10.00 Overcast BKN023 OVC028 59 48.2 68% 29.93 0.0
06 14:35 N 6 10.00 Overcast OVC025 59 48.2 68% 29.93 0.0
06 14:15 Calm 10.00 Overcast OVC023 57.2 48.2 72% 29.92 0.0
06 13:55 N 7 10.00 Overcast BKN021 OVC026 59 48.2 68% 29.92 0.0
06 13:35 NE 5 10.00 Overcast OVC019 57.2 50 77% 29.92 0.0
06 13:15 NE 7 10.00 Overcast BKN017 OVC022 55.4 48.2 77% 29.93 0.0
06 12:55 N 6 10.00 Overcast BKN014 OVC021 55.4 48.2 77% 29.93 0.0
06 12:35 N 5 10.00 Overcast OVC012 55.4 50 82% 29.93 0.0
06 12:15 NE 3 10.00 Overcast OVC010 55.4 50 82% 29.93 0.0
06 11:55 NE 3 10.00 Overcast BKN008 OVC025 53.6 50 88% 29.92 0.0
06 11:35 N 3 10.00 Overcast OVC006 51.8 48.2 88% 29.92 0.0
06 11:15 N 5 10.00 Overcast OVC006 50 46.4 88% 49 29.92 0.0
06 10:55 N 7 10.00 Overcast OVC006 50 46.4 88% 48 29.91 0.0
06 10:35 N 7 10.00 Overcast OVC006 50 46.4 88% 48 29.91 0.0
06 10:15 N 6 10.00 Overcast OVC006 48.2 46.4 94% 46 29.9 0.0
06 09:55 N 8 10.00 Overcast OVC006 48.2 46.4 94% 45 29.89 0.0
06 09:35 N 8 10.00 Overcast BKN006 OVC015 48.2 46.4 94% 45 29.88 0.0
06 09:15 N 9 10.00 Overcast SCT004 OVC015 48.2 46.4 94% 45 29.88 0.0
06 08:55 N 3 10.00 Overcast OVC004 46.4 46.4 100% 29.88 0.0
06 08:35 N 7 3.00 Overcast OVC004 46.4 46.4 100% 43 29.87 0.0
06 08:15 N 7 3.00 Overcast OVC002 48.2 46.4 94% 46 29.85 0.0
06 07:55 N 6 5.00 Overcast OVC004 50 48.2 94% 48 29.84 0.0 0.01
06 07:35 NW 8 10.00 Overcast OVC004 50 50 100% 47 29.84 0.0 0.01
06 07:15 N 6 10.00 Overcast OVC004 50 50 100% 48 29.82 0.0 0.01
06 06:55 N 7 10.00 Overcast OVC004 51.8 50 94% 29.81 0.0 0.01
06 06:35 N 12 G 16 10.00 Overcast OVC006 55.4 55.4 100% 29.8 0.0 0.01
06 06:15 W 3 10.00 Overcast OVC004 59 57.2 94% 29.76 0.0 0.01
Date Time (edt) Wind (mph) Vis. (mi.) Weather Sky Cond. Air Dwpt Max. Min. Relative Humidity Wind Chill (°F) Heat Index (°F) altimeter (in) sea level (mb) 1 hr 3 hr 6 hr
6 hour
Temperature (ºF) Pressure Precipitation (in)